Preview of NWS' New Version of Forecast
This preview is not operational and should not be used for support decisions.

Regional Weather Roundup (RWR)

Issued by National Weather Service (NWS)

                            
000
ASUS42 KTBW 231317
RWRFL 
FLORIDA REGIONAL WEATHER ROUNDUP
NATIONAL WEATHER SERVICE TAMPA BAY RUSKIN FL
900 AM EDT MON SEP 23 2019

NOTE: "FAIR" INDICATES FEW OR NO CLOUDS BELOW 12,000 FEET WITH NO
SIGNIFICANT WEATHER AND/OR OBSTRUCTIONS TO VISIBILITY.

FLZ001>010-012>015-112-114-115-231400-
PANHANDLE FLORIDA
  
CITY           SKY/WX    TMP DP  RH WIND       PRES   REMARKS
PENSACOLA      FAIR      76  70  82 N7        30.09R                  
PENSACOLA NAS  FAIR      73  70  90 N3        30.08S                  
MILTON NAS     FAIR      71  66  84 N3        30.10R                  
CRESTVIEW      FAIR      68  64  87 CALM      30.12R                  
DUKE FIELD     FAIR      69  65  89 E6        30.11R                  
VALPARAISO     FAIR      72  66  82 E6        30.10R                  
PANAMA CITY    FAIR      75  69  81 N7        30.10R                  
TYNDALL AFB    FAIR      74  68  81 NE6       30.09R                  
APALACHICOLA   CLOUDY    75  71  87 NE5       30.10R                  

STATION/POSITION SKY/WX   TEMP    WIND        PRES    WAVE   SWELL
                          AIR SEA DIR/SP/G            HT/PER HT/PER
                          (F)     (DEG/KT/KT) (MB)    (FT/S) (FT/S)
30.1N   87.6W              80 83   40/ 10/ 12 1018.8R   3/ 6   2/ 6
29.2N   88.2W              81     100/ 10/ 14 1018.4R   3/ 8   3/ 8
28.8N   86.0W                 83   90/ 12/ 14 1018.2R   3/ 6   2/ 6
PANAMA CITY BEAC           74 84   40/  6/ 10 1019.6R
TOWER C                    80      90/ 14/ 16 1019.2R
28.5N   84.5W              80      70/ 10/ 12 1018.9R   3/ 5   2/ 6

$$
FLZ011-016>038-118-127-128-134-139-239-231400-
NORTH FLORIDA
  
CITY           SKY/WX    TMP DP  RH WIND       PRES   REMARKS
MARIANNA       PTSUNNY   72  67  84 CALM      30.11R                  
TALLAHASSEE    PTSUNNY   74  68  81 E7        30.11R                  
PERRY          FAIR      71  71  97 CALM      30.11S                  
LIVE OAK       SUNNY     68  68 100 CALM      30.10S                  
CROSS CITY       N/A     73  69  89 NE5       30.10S                  
LAKE CITY        N/A     70  66  88 CALM      30.11R FOG              
GAINESVILLE    FAIR      75  68  78 N3        30.12R                  
WILLISTON      FAIR      74  69  84 NE8       30.10R                  
PALATKA        FAIR      73  68  83 N5        30.09S                  
MAYPORT NAS    FAIR      80  65  59 N5        30.09S                  
JACKSONVILLE   FAIR      73  67  81 N3        30.10R                  
JAX NAS        FAIR      77  67  71 N7        30.10S                  
JAX CECIL      SUNNY     73  68  83 N5        30.10R                  
FERNANDINA BEA FAIR      76  71  84 N5        30.10S                  
ST AUGUSTINE   FAIR      79  32  18 NE8       30.10R                  
PALM COAST     SUNNY     75  63  64 VRB3      30.07S                  

STATION/POSITION SKY/WX   TEMP    WIND        PRES    WAVE   SWELL
                          AIR SEA DIR/SP/G            HT/PER HT/PER
                          (F)     (DEG/KT/KT) (MB)    (FT/S) (FT/S)
SHELL POINT      NOT AVBL
KEATON BEACH               73      60/  4/  5 1019.6R
CEDAR KEY                  72      40/  6/  8 1018.6R
FERNANDINA                 79 80  310/  3/  5 1020.0
30.7N   81.3W                 80                N/A     4/13   2/13
MAYPORT                    77 80  350/  3/  4 1019.5
31.4N   80.9W              79 81   30/  4/  6 1019.4R   3/13   3/13
ST AUGUSTINE               80 80   20/  9/ 11 1018.9R

$$
FLZ040-043>046-052-053-057-058-063-144-231400-
INTERIOR CENTRAL FLORIDA
  
CITY           SKY/WX    TMP DP  RH WIND       PRES   REMARKS
OCALA          FAIR      75  68  78 N5        30.09R                  
LEESBURG       FAIR      76  67  73 N7        30.08R                  
SANFORD        CLOUDY    74  66  76 N8        30.06R                  
ORLANDO EXEC   PTSUNNY   76  65  68 N5        30.06R                  
ORLANDO INTL   PTSUNNY   73  65  75 N7        30.06R                  
KISSIMMEE      PTSUNNY   75  67  76 CALM      30.07R                  
LAKELAND       SUNNY     72  68  88 CALM      30.07R                  
BARTOW         MOSUNNY   77  66  69 NE7       30.05R                  
SEBRING        FAIR      73  67  81 N9        30.04R                  
OKEECHOBEE     FAIR      73  68  83 N5        30.02R                  

$$
FLZ041-047-054-059-064-141-147-231400-
EAST CENTRAL FLORIDA
  
CITY           SKY/WX    TMP DP  RH WIND       PRES   REMARKS
ORMOND BEACH   SUNNY     79  64  61 NE5       30.07R                  
DAYTONA BEACH  FAIR      77  66  68 NE7       30.06S                  
DELAND         FAIR      75  66  73 N8        30.06S                  
NEW SMYRNA BEA MOSUNNY   79  64  61 NE8       30.07R                  
TITUSVILLE     MOSUNNY   82  66  57 E8        30.05R                  
PATRICK AFB    FAIR      81  64  56 NE9       30.04R                  
MELBOURNE      FAIR      80  64  58 NE9       30.03R                  
VERO BEACH     CLOUDY    81  67  62 NE9       30.02R                  
FT PIERCE      CLOUDY    79  69  71 E8        30.01R                  
STUART         MOSUNNY   82  64  54 E12       30.02R                  

STATION/POSITION SKY/WX   TEMP    WIND        PRES    WAVE   SWELL
                          AIR SEA DIR/SP/G            HT/PER HT/PER
                          (F)     (DEG/KT/KT) (MB)    (FT/S) (FT/S)
28.5N   80.2W              80 82   50/ 12/ 16 1017.6R   6/ 8   5/ 8
28.9N   78.5W              78 80   50/ 14/ 17 1017.6R   7/12   7/12
TRIDENT PIER               80 81   50/  8/ 11 1018.6R
28.4N   80.5W                 81                N/A     4/13   2/13
27.5N   80.2W                 81                N/A     5/13   2/13

$$
FLZ050-056-061-142-242-148-248-149-249-151-251-155-255-
160-260-231400-
WEST CENTRAL FLORIDA
  
CITY           SKY/WX    TMP DP  RH WIND       PRES   REMARKS
CRYSTAL RIVER  FAIR      72  68  88 NE3       30.09R                  
INVERNESS      FAIR      75  70  83 N8        30.09R HAZE             
BROOKSVILLE    FAIR      73  66  78 N5        30.08R                  
CLEARWATER AIR FAIR      73  64  73 NE8       30.06S                  
ST PETE CLEARW FAIR      76  67  73 NE10      30.06R                  
TAMPA INTL     FAIR      75  66  73 N8        30.07R                  
TAMPA EXEC     FAIR      72  68  88 NE3       30.07S                  
PLANT CITY     FAIR      73  70  88 N6        30.08S                  
PETER O KNIGHT CLOUDY    77  70  78 NE6       30.06S                  
ST PETERSBURG  FAIR      76  69  79 NE12      30.05R                  
SARASOTA       FAIR      77  67  71 NE9       30.03R                  
VENICE         FAIR      75  68  78 NE8       30.05R                  

STATION/POSITION SKY/WX   TEMP    WIND        PRES    WAVE   SWELL
                          AIR SEA DIR/SP/G            HT/PER HT/PER
                          (F)     (DEG/KT/KT) (MB)    (FT/S) (FT/S)
27.3N   84.2W                 84                N/A     4/ 6
CLEARWATER BEACH           74 82   30/  7/ 11 1018.3R
MIDDLE TAMPA BAY           76      60/ 14/ 16 1017.9R
VENICE                     74 83   30/  7/  9 1017.2R

$$
FLZ066-069-070-075>078-162-262-165-265-231400-
SOUTHWEST FLORIDA AND KEYS
  
CITY           SKY/WX    TMP DP  RH WIND       PRES   REMARKS
PUNTA GORDA    FAIR      73  69  87 NE8       30.04R                  
FT MYERS       FAIR      76  67  73 NE6       30.01R                  
SOUTHWEST INTL FAIR      75  67  76 NE7       30.02R                  
NAPLES         FAIR      78  68  71 NE10      29.99R                  
MARCO ISLAND   FAIR      76  66  71 NE9       30.01R                  
IMMOKALEE      FAIR      73  70  88 N5        29.99R                  
MARATHON       FAIR      80  73  79 NE14      29.95R                  
KEY WEST NAS   PTSUNNY   82  73  74 NE16      29.95R                  
KEY WEST INTL  FAIR      81  73  76 NE16G23   29.95R                  

STATION/POSITION SKY/WX   TEMP    WIND        PRES    WAVE   SWELL
                          AIR SEA DIR/SP/G            HT/PER HT/PER
                          (F)     (DEG/KT/KT) (MB)    (FT/S) (FT/S)
NAPLES                     75 82   50/  6/ 11 1015.6R
26.0N   85.6W              82 85   60/ 14/ 19 1016.5R   5/ 7
DRY TORTUGAS               81      70/ 22/ 24 1014.5R
SAND KEY                   80      50/ 22/ 27 1012.5
SOMBRERO KEY               80      40/ 18/ 21   N/A
LONG KEY                   79                 1013.1

$$
FLZ067-068-071>074-168-172>174-231400-
SOUTHEAST FLORIDA 
  
CITY           SKY/WX    TMP DP  RH WIND       PRES   REMARKS
W PALM BEACH   FAIR      81  63  54 NE14      30.00R                  
BOCA RATON     MOSUNNY   82  66  57 E15       29.99R                  
FT LAUDER-EXEC FAIR      81  66  60 E12       29.98R                  
FT LAUDERDALE  FAIR      80  67  64 NE13      29.97R                  
POMPANO BEACH  FAIR      82  64  54 E12       29.98R                  
PEMBROKE PINES FAIR      84  67  56 NE13G18   29.99R                  
OPA LOCKA      FAIR      82  68  62 NE12      29.98R                  
MIAMI          FAIR      83  67  58 NE10G18   29.97R                  
WEST KENDALL   FAIR      82  71  69 E9        29.97R                  
HOMESTEAD      FAIR      82  72  73 NE16      29.95                   

STATION/POSITION SKY/WX   TEMP    WIND        PRES    WAVE   SWELL
                          AIR SEA DIR/SP/G            HT/PER HT/PER
                          (F)     (DEG/KT/KT) (MB)    (FT/S) (FT/S)
VIRGINIA KEY               81 82   30/  9/ 14 1014.4R
LAKE WORTH                 80 81   40/ 15/ 17 1016.6R
FOWEY ROCKS                81 83   40/ 17/ 19 1014.9R
SETTLEMENT POINT           78      40/ 15/ 17 1015.5R

$$